Portada
METAR-TAF:

METAR-TAF

Aeroports :

Gaya, Índia

latitud: 24-44-40N, longitud: 84-57-04E, altitud: 116 m

Observació

L'informe es va fer fa 4 hores i 20 minuts, a les 18:00 UTC
Vent 7 kt del Sud
Temperatura 15°C
Humitat 82%
Pressió 1016 hPa
Visibilitat: 2000 m
boirina

METAR: VEGY 191800Z 18007KT 2000 BR NSC 15/12 Q1016

Hora: 03:50 (22:20 UTC)


TAF: manca

Observacions i pronòstics meteorològics de més de 4000 aeroports (METAR i TAF).

Les estacions disponibles són els punts grocs i vermells al mapa.

Posi el ratolí al punt desitjat per veure el nom de l'estació.

Feu clic per veure les observacions i els pronòstics meteorològics.

Per canviar el mapa: feu clic els botons verds amb una creu de color negre per apropar; al botó verd amb un guió per allunyar la imatge; o en les fletxes verdes per a mapes adjacents.


METAR-TAF: